Location: Bermeries
(50.2863°N, 3.7551°E)
Time: 09:48:03
(UTC+00:00)

CZ-2C R/B - Visible Passes

Search period start: 06 October 2024 00:00
Search period end: 16 October 2024 00:00
Orbit: 783 x 868 km, 98.3° (Epoch: 05 October)

Date Brightness Start Highest point End Pass type
(mag) Time Alt. Az. Time Alt. Az. Time Alt. Az.
06 Oct 5.2 01:10:18 13° N 01:10:18 13° N 01:10:56 10° N visible
07 Oct 5.3 00:51:03 13° N 00:51:03 13° N 00:51:40 10° N visible
08 Oct 5.4 00:31:46 13° N 00:31:46 13° N 00:32:20 10° N visible
09 Oct 5.5 00:12:30 12° N 00:12:30 12° N 00:12:55 10° N visible
09 Oct 5.6 23:53:14 11° NNE 23:53:14 11° NNE 23:53:22 10° N visible
12 Oct 5.5 00:56:10 10° N 00:56:10 10° N 00:56:11 10° N visible
